FENGYUN 1C DEB *, 46989

Orbit data source: Space-Track

FENGYUN 1C DEB *, 46989 is space debris in SSO originally from a launch on Mon, 10 May 1999 UTC launched from the Taiyaun Space Center, China (TSC). Fengyun 1C debris stems from the Chinese weather satellite Fengyun-1C, which was intentionally destroyed by a Chinese anti-satellite missile in 2007. This event dramatically increased the amount of space debris, with thousands of trackable fragments posing hazards to satellites and human spaceflight. The Fengyun 1C debris cloud has become a focal point in discussions about space sustainability and the need for international regulations to prevent the creation of new debris.

Loading next visibility...
Identifier
46989, 1999-025EZP
Orbit
SSO
Country
Flag of CNCN / PRC
Related business
Manufacturer
Unknown
Mission
Spacecraft
Bus & Motor
Unknown
Mass
Unknown
Launch date (UTC)
1999-05-10 (27 years ago)
Launch vehicle
Unknown
Launch site
Taiyaun Space Center, China (TSC)
Object type
Payload
Rocket body
Debris
Shape & HBR
Unknown shape, 0.1 m
Radar Cross Section
Small (<0.1 m²)

Expand to show TLE details & history
Last TLE update: 2 days ago

TLE from 2 days ago
0 FENGYUN 1C DEB *
1 46989U 99025EZP 26148.42736059  .00004743  00000-0  36860-2 0  9991
2 46989  99.5125 316.2665 0230522 258.4939 128.6539 13.81309282733422
Epoch: 2026-05-28T10:15Z
TLE epoch observation values (Epoch: 2026-05-28T10:15:23.954Z)
Latitude
28.77968°
Longitude
-88.8096°
Altitude
1,070.731 km
Speed
7.265 km/s
True Right ascension
20h 44m 02s
True Declination
28° 38' 27"
Sunlit
Object was in daylight at epoch
Visualization orbit readout
Latitude
Unknown
Longitude
Unknown
Altitude
Unknown
Speed
Unknown
Apparent Right ascension
Unknown
Apparent Declination
Unknown
Sunlit
N/A
Visualization observer readout
Local Sidereal Time
22:53:18
Azimuth
Unknown
Elevation
Unknown
Doppler factor
Unknown
Orbital elements
Apogee altitude
1,125.574 km
Perigee altitude
787.415 km
Semi-major axis
7,334.631 km
Eccentricity
0.02305
Inclination
99.5125°
RAAN
316.2665°
Arg. of periapsis
258.4939°
True anomaly
130.67988°
Mean anomaly
128.6539°
Eccentric anomaly
129.67055°
Mean motion
3.45522 °/min
Orbital period
104.19 mins
BSTAR
0.003686
Loading maneuver chart data...
Computing Atmospheric mass density...
Loading historical data...
Loading historical data...
Loading historical data...
Loading historical data...
Loading historical data...
Loading historical data...
Loading historical data...

Documentation

Showing up to 5 results
|